Погода в Лычеве

Россия / Ивановская область     56°30′55″N   40°02′24″E
темп.,
°C
ветер,
м/с
пор.,
м/с
влажн.,
%
обл.,
%
осадки,
мм/ч
давл.,
гПа
погр.,
м
20 апреля, вт
вт2000:00+3в61357100 0.0 1026519
03:00+2в61158100 0.0 1026509
06:00+1в5116536 0.0 1025390
09:00+4в6105795 0.0 1025595
12:00+7вюв81150100 0.0 10231125
15:00+9вюв71152100 0.0 10211586
18:00+6вюв71377100 0.6 10201173
21:00+6вюв81468100 1.0 10181014
21 апреля, ср
ср2100:00+5в81574100 0.8 1014901
03:00+1в81897100 5.1 1010783
06:00+2в91897100 4.3 1005985
09:00+6вюв111995100 4.6 1002928
12:00+7ююв61394100 1.4 1001940
15:00+3ююз5997100 4.3 1005493
18:00+4ююз5989100 0.1 1007887
21:00+3ююз51092100 0.2 1009547
22 апреля, чт
чт2200:00+4ююз51093100 0.1 1010562
03:00+3ююз51095100 0.1 1012479
06:00+3ююз4898100 0.0 1013537
09:00+5ю6888100 0.1 1015456
12:00+9ююз676795 0.1 10151237
15:00+10ююз686591 0.9 10161197
18:00+10ююз5868100 0.2 1016661
21:00+6ю4108741 0.2 1018188
23 апреля, пт
пт2300:00+5ю389134 0.0 1017150
03:00+4ююв3109347 0.0 1017179
06:00+4ююв4109569 0.0 1017221
09:00+11ю587837 0.0 1016455
12:00+15ю795957 0.0 10161219
15:00+17ю6104967 0.5 10141991
18:00+15ю6115897 0.6 1014562
21:00+11ююв6136836 0.7 1014388
24 апреля, сб
сб2400:00+10ююв614755 0.0 1013368
03:00+8ююв513835 0.0 1012305
06:00+7юв6138763 0.2 1011341
09:00+12ююв81270100 0.3 1010851
12:00+13ю81364100 0.8 10081768
15:00+6зсз5686100 1.4 1010494
18:00+4з61095100 1.3 1010636
21:00+4зсз3889100 5.1 1011486